Theta_e
332 331 329 328 328 328 327 327 325 323 325 327 325 325 325 324 322 319 321 324 325 328 330 330 328 327 329 331 330 330 329 328 327 326 325 324 323 322 322 321 320 320 320 320 319 318 319 317 316 315 315 314 313 312 312 312 311 311 311 311 310 310 309 308 308 308 308 308 307 307 307 307 306 306 306 306 306 306 306 305 304 304 304 304 303
332 330 328 328 327 327 327 326 324 322 325 326 325 325 324 324 322 319 322 325 327 329 329 328 327 327 330 330 329 329 327 326 325 325 324 323 322 321 321 320 320 320 320 320 319 318 318 317 316 315 314 314 313 312 312 311 311 311 311 310 310 309 308 308 308 308 308 307 307 307 307 305 305 305 305 305 305 305 304 304 304 304 304 303 303
332 330 328 327 327 327 327 326 324 322 325 326 324 324 323 323 321 319 323 326 327 328 328 327 326 327 328 328 328 327 326 325 324 323 322 321 321 321 320 319 319 320 320 320 318 317 317 316 316 315 314 313 313 312 311 311 310 310 310 310 309 308 308 308 308 308 307 306 306 307 306 304 304 305 305 305 305 304 304 304 303 303 302 302 302
331 329 328 327 326 326 326 325 324 323 325 325 323 323 323 322 320 320 324 326 327 328 327 327 326 325 326 327 326 325 325 324 323 322 321 320 321 320 319 319 320 319 319 318 317 316 316 316 315 314 313 313 312 311 310 310 310 310 310 309 308 308 308 307 307 307 306 306 306 306 305 304 304 304 304 304 304 303 303 303 302 302 302 302 302
330 329 327 327 326 326 326 326 325 324 325 324 323 323 322 321 319 321 325 325 326 327 326 326 326 324 323 325 324 323 323 322 322 320 320 320 320 320 319 319 319 318 317 317 315 315 316 315 314 314 313 313 312 311 310 310 310 310 310 309 308 307 307 307 307 306 305 306 306 305 304 303 303 304 304 303 303 303 303 302 302 302 301 301 301
329 329 327 326 326 325 325 325 324 324 324 324 323 323 322 320 319 322 325 325 325 325 324 324 324 322 322 322 322 323 322 321 320 319 319 319 319 319 319 318 317 316 316 315 314 314 315 314 314 314 313 313 312 311 310 310 310 310 309 308 307 307 307 306 306 305 305 305 305 304 303 302 303 303 303 303 303 303 302 301 301 301 301 301 301
328 328 326 325 325 325 325 324 324 324 323 323 322 322 322 320 319 322 324 323 323 321 321 323 322 321 320 320 321 321 321 320 319 319 319 319 319 318 317 316 316 315 315 314 314 314 314 314 313 313 313 312 311 310 310 310 310 310 309 307 306 307 306 306 305 304 304 305 304 303 302 302 302 302 302 302 302 302 301 301 301 301 300 300 300
328 327 325 325 324 324 324 323 324 323 322 322 321 321 321 319 319 321 322 322 320 316 316 321 321 319 318 319 319 320 320 319 319 319 319 319 318 317 316 315 315 315 315 314 314 313 313 313 313 313 312 312 311 310 310 309 310 309 308 307 306 306 306 305 304 303 304 304 303 302 301 301 302 302 302 302 301 301 301 301 300 300 300 300 299
327 326 325 325 324 324 323 323 323 323 322 321 321 321 320 319 319 321 321 320 318 314 312 316 319 317 316 316 317 318 319 318 318 318 318 318 317 316 315 314 314 314 314 313 313 313 313 312 312 312 312 311 310 310 309 309 309 309 308 306 305 305 305 304 303 303 304 303 303 301 301 301 301 301 301 301 301 300 300 300 300 300 300 300 299
327 326 325 325 325 324 323 322 322 322 321 320 320 320 320 320 319 319 320 318 315 312 310 312 315 316 316 315 315 316 316 316 317 317 317 317 316 315 314 313 313 313 314 313 313 313 312 311 312 312 311 311 310 310 309 308 309 308 307 305 304 305 304 304 303 303 303 302 302 301 300 301 301 301 300 300 300 300 300 300 299 300 300 299 298
327 326 326 325 324 324 323 322 322 321 321 320 319 319 319 319 318 316 316 316 314 311 310 310 310 313 314 312 312 314 313 314 315 315 315 316 315 314 313 313 313 312 313 313 313 313 312 311 311 311 311 311 310 309 308 308 308 308 307 304 304 304 303 303 302 302 302 301 301 300 300 300 300 300 300 300 299 299 300 299 299 299 299 298 298
326 326 325 325 324 324 323 322 322 321 320 319 318 319 318 318 316 314 313 311 310 310 309 309 307 306 307 307 308 309 310 310 312 312 313 313 314 314 313 313 312 312 312 313 313 312 311 310 310 310 310 310 310 309 308 307 307 307 306 304 303 303 303 302 302 302 301 301 301 300 299 300 300 299 300 299 299 299 299 299 298 298 298 298 297
324 326 325 325 323 323 322 321 321 320 320 319 318 318 317 316 315 314 314 310 306 306 307 309 306 301 301 302 302 304 306 307 309 309 310 311 312 312 312 312 312 311 311 312 312 312 311 310 310 310 310 309 309 308 307 306 306 307 305 303 303 303 303 302 301 301 301 301 301 299 299 299 299 299 299 299 298 298 298 298 298 298 298 297 297
321 325 324 324 323 322 322 321 321 320 319 319 318 317 316 315 314 312 313 310 307 305 306 309 306 301 300 299 299 301 302 303 305 306 307 308 309 310 310 311 311 311 311 311 311 311 310 309 309 309 309 309 308 307 307 306 306 306 305 303 303 303 302 302 301 301 300 301 300 299 299 299 298 298 299 298 297 297 298 297 297 297 297 296 296
319 324 324 323 323 322 321 320 320 319 319 318 317 316 315 314 314 312 310 308 306 305 308 310 306 303 303 303 303 302 301 300 301 302 303 304 306 307 308 309 310 310 309 309 309 310 309 309 308 308 308 308 307 307 306 306 306 306 305 304 303 302 302 301 301 301 300 300 299 298 298 298 298 298 298 297 297 297 297 297 297 296 296 296 296
317 323 323 323 323 321 320 320 319 319 318 317 316 315 314 313 314 313 309 306 303 304 308 309 306 306 308 307 305 305 306 302 296 296 299 301 303 304 306 307 308 308 308 308 308 308 308 308 308 307 308 307 306 306 306 306 306 305 305 304 303 303 302 301 301 300 300 299 299 298 297 297 297 297 297 297 297 296 297 296 296 296 295 295 295
317 322 323 322 322 320 320 319 319 318 317 317 316 314 314 313 313 312 311 308 305 304 307 307 309 311 311 309 306 309 309 301 297 297 297 299 301 301 303 304 305 306 307 307 306 306 306 307 307 307 306 306 306 305 306 306 305 305 305 304 304 303 301 300 300 300 299 299 299 298 297 297 297 297 297 297 296 296 296 296 295 295 295 295 294
316 321 323 322 322 320 319 319 318 318 317 317 316 314 313 313 313 313 312 311 308 306 306 306 310 312 312 311 310 311 306 300 302 301 295 296 298 299 301 302 303 304 304 305 305 305 305 305 306 306 305 305 305 305 305 305 305 305 304 304 304 303 302 300 299 299 299 298 298 297 296 296 296 296 296 296 296 295 295 295 294 294 294 294 294
316 321 322 322 321 320 319 319 318 317 317 316 315 315 314 313 313 313 311 311 309 308 306 306 308 309 311 311 309 310 308 304 305 303 299 298 296 296 298 299 300 301 302 304 304 304 304 304 304 304 304 305 304 304 305 305 305 304 304 304 304 303 302 300 299 299 298 298 298 297 296 296 296 296 295 295 295 295 295 294 294 294 293 293 293
315 320 322 321 321 320 319 318 318 317 317 316 315 314 314 313 312 312 310 310 310 310 308 306 307 308 309 308 308 309 309 307 307 306 306 304 297 293 293 294 297 299 301 302 304 304 303 303 303 303 303 304 304 304 304 305 305 304 303 304 303 302 301 300 299 298 298 298 298 297 296 296 295 295 295 295 295 294 294 294 293 293 293 293 292
316 320 322 322 321 319 319 318 317 317 316 316 316 314 313 312 311 310 309 309 310 310 309 307 308 310 308 306 307 307 307 308 308 306 307 306 299 292 289 289 292 297 300 301 302 302 302 302 302 302 302 303 303 303 303 305 304 303 302 303 303 302 302 301 300 298 298 297 297 296 295 295 295 295 295 294 294 294 294 293 293 293 292 292 291
319 321 322 321 321 319 319 318 317 317 316 316 315 314 313 312 311 310 309 309 309 309 309 308 309 310 308 306 306 305 305 305 305 305 306 304 300 294 290 289 291 293 297 299 299 299 300 300 301 301 301 302 301 301 302 304 303 302 301 302 302 302 301 300 299 299 297 297 297 296 295 295 294 294 294 294 293 293 293 292 292 292 292 291 291
321 321 321 321 320 319 318 318 317 316 316 316 315 314 313 312 311 310 309 309 309 309 309 309 309 309 308 307 307 307 306 306 305 305 305 302 300 296 291 290 292 291 291 293 294 296 297 298 298 298 298 298 297 298 302 303 302 301 300 300 301 301 301 300 299 298 297 296 296 295 295 295 294 294 293 293 293 292 292 292 292 291 291 290 290
321 321 321 320 320 319 318 318 317 316 316 316 315 314 314 312 311 310 309 309 309 309 309 309 309 309 309 308 309 309 309 308 307 306 306 304 301 297 291 290 292 290 289 289 289 291 294 296 296 295 295 295 295 297 301 302 301 301 299 299 300 300 300 300 299 298 297 296 296 295 295 294 294 293 293 292 292 292 291 291 291 291 290 290 289
320 320 320 320 320 319 318 317 317 316 316 316 315 315 314 312 311 310 309 309 309 309 310 310 309 310 310 308 308 309 309 309 308 307 306 305 301 296 291 291 292 289 288 287 287 287 289 292 294 293 293 293 294 297 300 300 300 300 299 298 298 298 299 299 299 298 297 296 295 295 294 294 293 293 292 291 291 291 291 290 290 290 289 289 289
320 320 320 320 320 319 318 318 317 316 316 316 315 314 314 313 312 311 310 310 309 310 310 310 310 310 310 309 308 309 309 309 308 307 306 305 301 295 290 290 290 287 286 286 285 286 287 288 290 291 291 292 294 297 298 299 299 299 298 298 297 297 298 299 299 298 297 296 295 295 294 294 293 293 291 291 291 290 290 290 289 289 289 288 288
320 320 320 320 320 319 319 318 317 317 316 316 315 314 314 313 312 311 311 310 309 310 310 310 310 310 310 309 309 309 309 309 308 308 307 307 304 300 295 292 290 287 285 284 284 285 287 287 287 288 289 290 292 295 297 297 297 297 297 297 297 296 296 298 298 298 297 296 295 295 294 294 294 293 291 290 290 290 289 289 289 289 288 287 287
319 320 320 320 320 320 319 319 318 317 317 316 316 315 314 313 312 311 310 310 309 309 310 309 309 309 309 309 309 308 308 309 309 308 308 308 306 306 303 298 296 292 286 285 284 285 286 286 286 286 287 287 289 291 294 295 295 295 296 296 296 296 295 296 297 297 296 296 295 295 294 294 293 292 291 290 290 289 289 289 288 288 288 287 287
317 318 319 319 319 320 319 319 318 317 317 316 316 315 314 313 312 311 311 310 309 309 309 309 309 308 308 308 308 307 307 307 307 308 308 307 306 307 307 304 303 298 290 289 288 285 286 287 287 287 286 286 287 288 291 292 293 294 295 295 296 295 294 294 294 295 296 296 295 295 294 293 293 292 291 290 290 289 289 288 288 288 287 286 286
317 317 317 317 317 317 317 317 316 316 315 315 315 314 313 313 312 312 311 310 310 309 309 309 309 308 308 308 308 307 307 306 306 306 306 306 305 306 308 307 307 303 295 294 294 289 287 287 287 288 287 285 286 287 288 291 292 293 294 295 295 295 294 293 292 293 294 295 294 294 294 293 293 292 291 291 290 290 289 288 288 287 286 286 285
318 317 317 316 316 316 316 316 315 315 315 314 314 313 312 312 311 311 311 310 310 309 309 309 309 309 308 308 307 307 307 306 305 305 304 305 305 305 307 306 306 306 300 299 302 295 289 288 287 288 288 286 284 285 287 289 291 292 293 294 294 293 292 292 291 291 293 294 293 293 293 293 292 292 291 291 290 290 289 288 287 287 286 284 283
317 317 317 317 317 316 316 315 315 315 314 314 314 313 313 312 311 312 311 311 310 310 309 309 309 309 308 308 308 307 307 307 306 305 304 304 304 304 306 304 304 306 303 303 304 295 289 290 289 287 288 287 284 284 285 287 289 291 292 292 292 292 291 291 291 291 292 293 291 291 292 292 292 291 291 291 290 289 288 288 287 286 284 281 279
315 316 317 317 317 317 316 316 315 314 314 314 314 314 313 313 312 312 312 311 311 310 310 310 309 309 309 308 308 307 307 307 306 305 304 304 303 302 303 303 302 303 304 304 302 291 286 288 288 286 287 286 284 283 284 285 287 289 291 291 291 291 290 290 290 290 291 292 290 290 290 290 290 290 290 290 289 288 288 287 285 283 280 279 277
313 314 315 316 316 316 316 316 315 315 315 314 314 314 313 313 313 312 312 312 311 311 310 310 309 309 309 309 309 308 308 307 306 305 304 303 303 302 302 302 301 302 303 303 301 292 285 285 286 285 285 285 284 283 283 284 286 288 289 289 289 289 289 288 289 289 291 290 290 288 287 288 288 288 289 288 287 287 285 284 281 279 278 278 277
313 312 313 313 314 315 315 315 315 315 315 315 315 314 314 313 313 312 312 312 311 311 311 310 310 309 309 309 309 308 308 308 307 306 305 303 303 302 302 302 302 302 302 302 302 295 287 284 284 284 285 284 284 283 282 283 284 286 287 287 287 287 287 287 287 288 289 289 288 287 286 286 286 286 286 286 284 283 282 280 279 278 278 278 277
312 312 312 311 312 313 313 314 314 314 314 314 314 314 314 314 313 312 312 312 312 311 311 311 310 310 309 309 309 309 308 308 307 306 305 304 302 302 301 301 301 301 301 301 302 300 293 286 284 284 285 284 283 283 283 282 283 284 285 285 285 285 285 285 286 287 288 287 287 286 285 284 284 284 283 282 281 280 280 279 278 278 278 277 277
309 310 311 310 310 311 311 312 313 313 313 313 313 313 313 313 313 312 312 311 311 311 311 311 311 310 310 309 309 309 308 307 307 306 305 304 303 302 301 301 300 301 300 299 300 301 298 291 285 283 284 283 282 283 283 282 282 282 283 283 283 283 283 283 283 284 284 284 284 283 282 282 282 281 281 280 279 279 279 278 278 278 278 277 278
305 307 308 309 309 309 310 310 311 311 312 311 311 311 311 311 311 311 311 311 311 311 310 310 310 310 310 309 309 309 308 308 307 306 305 304 303 301 300 300 300 299 298 297 297 299 298 293 286 283 282 282 282 282 282 282 282 282 282 282 282 282 282 281 281 281 281 281 281 281 280 280 280 280 279 279 278 278 278 278 278 278 278 277 278
303 304 305 306 306 307 308 308 309 309 310 310 310 310 310 310 310 310 310 310 310 310 310 310 310 310 310 309 309 309 308 308 307 307 305 304 303 302 301 300 299 297 297 296 295 295 293 289 285 283 282 281 281 281 281 281 281 281 281 280 280 280 280 280 280 279 279 279 279 279 279 279 279 279 279 278 278 278 278 278 278 278 277 277 277
302 303 303 303 304 305 305 306 307 307 308 308 309 309 309 309 309 309 309 309 309 309 309 309 309 309 309 309 309 309 308 308 308 307 306 305 303 301 300 299 297 296 296 294 293 292 290 287 284 283 282 281 280 280 280 280 280 280 280 280 279 279 279 279 279 279 279 278 278 278 278 278 278 278 278 278 278 278 278 278 278 277 277 277 277
302 302 302 302 302 303 304 304 305 306 306 307 307 307 307 308 308 308 308 308 308 308 308 308 308 308 308 308 308 308 308 308 308 307 307 306 304 302 300 298 297 296 295 294 292 290 287 285 284 282 281 280 280 279 279 279 279 279 279 279 279 278 278 278 278 278 278 278 277 277 277 277 277 277 277 277 277 278 278 278 278 277 276 277 277
302 302 302 301 301 301 301 302 302 303 304 304 305 305 305 306 306 306 306 307 307 307 307 307 307 307 307 307 308 308 307 307 307 307 306 305 305 303 301 299 298 296 295 293 292 290 288 286 284 283 282 280 280 280 279 280 280 279 278 279 279 278 277 276 276 276 277 277 277 277 276 276 277 277 277 277 278 278 278 277 277 277 276 277 277
302 301 301 300 300 300 300 299 300 300 300 301 302 303 303 303 304 304 304 305 305 305 305 305 305 305 306 306 306 306 306 306 305 305 305 304 304 302 301 300 299 298 297 295 293 291 290 287 285 284 283 282 281 281 280 280 279 279 279 279 279 277 276 275 275 275 276 276 276 276 276 275 276 276 276 277 278 278 278 277 277 276 276 276 276
301 300 300 299 299 299 299 299 299 299 299 299 300 300 300 300 301 302 302 303 303 303 304 304 304 304 304 304 305 305 304 304 304 304 303 303 302 301 299 299 299 299 299 299 297 294 292 290 287 284 285 284 281 280 281 281 279 279 279 279 278 278 276 276 275 276 276 276 276 276 275 275 275 275 275 276 277 278 277 276 276 276 275 276 276
299 299 298 298 298 298 299 299 299 298 298 298 299 299 299 299 299 299 300 301 301 301 302 302 302 303 303 303 303 303 303 303 303 303 302 301 301 300 299 298 297 297 297 299 300 300 298 295 291 288 287 287 284 282 283 282 280 279 278 278 278 278 277 277 276 277 277 276 276 275 275 275 275 275 275 276 277 277 277 276 276 275 275 276 275
297 297 297 297 297 298 298 299 298 298 298 297 298 298 299 299 298 298 298 299 300 300 300 301 301 301 301 302 302 302 302 302 302 302 301 300 299 298 297 296 296 296 296 296 298 298 298 298 297 295 293 292 292 290 286 284 284 283 281 280 278 278 278 277 277 277 277 277 276 275 274 274 275 275 275 276 277 277 276 276 275 275 275 275 275
296 296 296 296 297 297 298 298 298 298 297 297 297 298 298 299 299 299 298 299 299 299 299 299 300 300 300 301 301 301 301 301 301 301 300 300 299 297 296 296 296 296 296 296 296 296 297 297 298 299 297 296 295 294 290 289 288 287 285 284 281 278 278 277 276 276 277 276 276 275 274 274 275 275 275 276 276 276 276 275 274 274 274 274 275
295 296 296 296 297 298 298 298 298 298 297 297 297 297 298 298 299 299 298 298 298 298 298 298 299 299 299 299 299 300 300 300 300 300 300 299 298 297 296 296 295 295 295 295 295 295 296 296 296 297 297 295 294 294 292 290 288 286 283 280 279 277 277 276 275 275 276 275 275 275 275 274 274 275 275 276 275 275 275 275 274 274 273 274 274
296 296 297 297 297 297 298 298 298 297 297 297 297 297 297 298 298 298 297 297 297 297 297 298 298 298 298 298 298 299 299 299 299 299 299 298 297 296 295 295 294 294 294 294 294 293 293 294 294 295 295 295 295 295 291 287 285 284 283 279 277 276 277 275 274 274 275 275 274 275 276 275 274 274 275 275 275 275 275 274 274 274 273 274 275
297 297 297 297 297 297 297 297 297 297 296 297 297 297 298 298 298 298 297 296 296 296 296 296 297 297 297 297 298 298 298 298 298 298 298 297 296 295 295 294 293 293 293 293 292 292 291 291 292 293 293 294 294 292 290 287 284 284 285 283 279 277 277 276 274 273 273 274 275 275 275 276 275 274 274 273 273 273 274 274 273 273 273 274 275
296 296 296 296 297 297 297 297 297 297 297 297 297 297 297 298 297 297 296 295 295 295 295 295 295 295 295 296 296 297 297 297 297 297 297 296 296 295 294 293 292 292 293 292 292 291 290 290 290 290 291 291 291 289 289 288 286 284 285 285 282 279 278 277 275 273 273 274 276 276 275 275 275 274 274 273 271 271 273 273 272 273 272 273 274
Wind_Speed
45 44 43 42 40 41 44 43 41 38 35 34 36 34 31 28 27 27 27 26 28 28 28 28 25 24 28 32 32 34 35 36 37 36 34 32 31 29 27 29 30 29 26 24 24 22 21 21 21 20 20 19 19 19 19 19 18 19 19 19 19 19 19 19 19 19 19 18 18 18 19 19 19 18 18 18 19 19 19 19 19 19 19 19 20
46 46 44 43 41 41 43 43 42 41 37 35 36 34 32 29 29 29 29 28 29 30 29 27 25 27 32 35 34 35 36 37 36 35 33 31 29 29 27 28 30 29 25 25 24 23 21 21 21 21 19 19 19 19 19 18 18 19 19 19 18 18 18 18 19 18 18 18 18 18 18 18 18 18 18 18 18 19 19 19 19 19 19 19 20
47 47 45 44 43 42 42 42 42 42 39 37 35 34 32 30 30 31 31 30 30 31 30 27 28 31 34 36 36 37 37 37 36 34 33 31 30 30 28 26 28 28 25 24 25 24 22 21 21 20 19 19 19 18 18 18 18 18 18 18 18 18 18 18 18 18 17 17 17 18 18 18 17 17 17 17 18 18 18 18 19 18 18 19 19
48 48 47 45 44 44 42 41 41 41 40 39 36 34 32 30 30 32 32 31 31 31 29 29 31 33 36 37 37 39 38 37 36 36 34 31 30 30 28 27 28 28 26 23 25 26 22 21 21 20 20 19 18 18 17 18 18 18 18 18 17 17 18 18 18 17 17 17 17 18 18 17 16 16 17 17 17 17 17 18 17 18 18 19 19
51 50 49 48 46 45 42 40 39 40 41 40 38 35 33 31 31 32 32 31 34 31 29 32 33 32 36 38 38 38 39 38 37 37 35 32 32 31 29 30 28 26 26 25 26 26 22 21 21 20 20 19 19 18 18 18 18 18 18 17 17 17 17 17 17 17 16 17 17 17 17 16 16 15 16 17 17 17 17 17 17 17 18 18 18
52 53 50 49 46 45 43 40 38 38 40 40 39 37 35 33 32 33 32 30 34 34 33 35 36 34 35 38 39 39 38 38 38 37 36 33 33 32 30 30 27 26 26 25 27 27 23 21 21 21 20 20 19 18 18 18 17 18 18 17 16 16 17 16 17 16 16 17 17 16 16 15 15 15 16 16 17 17 16 16 17 17 17 17 18
51 51 49 49 47 46 45 42 39 37 38 39 39 38 37 35 34 34 32 30 32 34 35 36 36 35 36 36 38 40 39 38 38 37 36 35 34 32 31 31 29 29 27 24 26 27 24 22 21 21 20 20 19 17 17 17 17 18 17 16 16 16 16 16 16 15 15 16 16 16 15 15 15 15 16 16 16 15 15 16 16 16 16 17 17
52 53 50 50 49 47 47 45 41 38 37 38 38 38 38 37 35 35 34 33 33 32 34 38 38 34 35 37 37 38 40 38 37 37 36 35 34 32 32 32 31 30 28 26 27 27 25 23 21 22 21 20 19 18 17 17 17 17 17 16 15 15 16 15 15 14 14 15 15 15 15 15 15 15 15 15 15 15 15 15 16 16 16 16 17
53 55 53 52 51 48 47 47 44 41 39 38 38 38 39 39 36 36 35 35 35 32 32 38 39 35 32 35 36 37 38 38 36 36 36 36 34 32 31 32 32 31 29 29 29 28 27 25 23 23 22 21 19 18 18 17 17 17 16 16 14 14 15 15 15 14 14 15 15 15 15 14 14 14 14 14 14 14 14 15 15 16 16 16 16
57 55 54 52 51 50 48 48 46 42 40 39 39 39 40 40 38 35 35 35 35 34 33 36 38 37 32 30 33 34 34 36 36 35 35 36 34 33 33 33 32 31 30 30 30 29 29 27 25 24 22 21 20 19 18 17 17 17 16 16 14 13 14 15 14 14 14 14 14 15 14 14 13 13 13 13 14 14 14 14 14 15 16 16 16
61 58 55 53 49 49 49 49 48 44 42 40 38 40 39 40 38 35 35 35 34 35 35 36 36 35 34 29 29 31 31 32 33 34 34 35 35 34 33 33 31 30 30 30 30 30 30 28 27 25 23 21 21 20 19 17 17 17 17 16 14 13 14 14 14 14 14 13 13 14 13 13 13 13 13 13 13 13 13 14 14 14 15 15 15
54 61 56 54 49 48 50 50 49 47 44 41 41 42 41 40 38 37 37 33 32 36 37 38 37 32 31 30 27 27 28 28 30 31 31 33 33 33 32 31 31 30 30 30 30 30 29 29 28 27 25 23 21 21 20 18 17 17 17 15 14 13 14 13 13 13 13 13 13 13 13 12 12 12 12 13 13 13 13 13 13 14 14 14 15
38 59 56 54 51 49 50 49 48 48 46 45 44 44 44 42 40 40 41 37 34 35 38 42 38 29 25 24 24 24 24 25 27 27 28 30 31 31 31 31 31 30 30 29 30 30 29 29 28 28 27 25 23 21 21 19 17 17 16 15 14 13 13 13 12 12 13 12 13 13 12 12 12 11 11 12 12 12 12 12 13 13 14 14 14
26 51 56 53 53 50 51 50 49 49 46 44 43 43 44 44 44 42 40 40 39 38 42 40 32 27 24 20 17 17 18 20 23 23 24 26 28 29 29 30 30 30 30 29 29 29 29 28 28 28 27 26 23 22 21 20 18 18 17 15 14 13 13 13 12 12 13 12 12 12 11 12 12 11 11 11 11 11 12 12 12 12 13 13 13
23 44 54 52 53 52 52 51 50 50 46 42 41 43 45 46 48 46 40 38 36 39 43 35 29 30 26 14 7 8 9 10 15 18 20 21 24 26 26 28 29 29 29 29 29 29 28 28 27 28 27 25 24 22 22 21 19 18 18 16 14 13 13 12 12 12 12 11 12 11 11 11 11 10 10 10 10 11 11 11 11 12 12 12 13
24 39 53 51 53 53 53 52 50 51 49 45 43 44 46 46 48 47 45 40 33 38 38 29 35 36 19 7 6 6 3 5 9 10 14 18 20 22 23 25 27 28 29 29 28 28 28 28 27 27 27 25 24 23 22 22 20 18 18 16 14 14 13 12 12 11 11 11 11 11 11 11 10 10 10 10 10 10 10 11 11 11 12 12 12
23 34 52 53 53 52 53 52 50 50 50 49 48 47 48 48 48 47 49 46 39 40 33 25 37 40 24 12 8 3 4 11 13 7 10 16 16 19 21 23 25 26 28 28 28 28 27 27 26 26 26 26 25 23 23 23 22 20 18 16 15 14 14 13 11 11 11 11 11 11 11 10 10 10 9 9 9 9 10 10 10 11 11 11 12
21 32 48 53 53 51 52 52 49 50 50 50 48 47 48 48 50 50 50 50 45 41 33 30 37 35 28 23 12 5 11 19 13 3 5 10 12 17 19 21 23 24 26 27 27 27 26 26 26 26 26 26 25 24 23 23 23 22 19 17 16 14 13 13 12 11 11 11 11 11 11 10 10 10 9 9 9 9 9 10 10 10 10 10 11
23 33 44 51 53 52 51 51 49 49 49 49 47 47 49 48 50 50 47 47 46 43 37 35 36 30 25 23 12 9 23 29 16 7 6 6 11 16 17 19 20 21 24 26 26 26 25 26 26 26 26 26 25 24 24 24 24 23 20 18 16 14 14 14 13 12 12 11 11 11 10 10 10 9 9 8 8 8 8 9 9 9 10 10 10
30 36 42 48 52 51 51 50 48 49 48 49 49 48 49 47 46 46 44 46 47 47 43 39 38 33 26 21 12 13 28 34 25 17 11 7 9 12 14 17 18 20 23 24 26 26 26 26 26 26 26 26 26 24 24 25 24 23 22 19 16 15 14 14 13 13 12 11 11 11 10 9 9 9 8 8 8 8 8 9 9 9 9 9 10
37 42 44 46 50 50 51 50 48 48 48 49 50 49 48 47 47 45 43 46 47 45 44 43 42 37 30 22 16 20 28 29 25 18 12 10 8 7 12 15 16 21 24 24 25 27 27 26 26 26 26 26 26 24 24 25 26 24 23 20 17 16 15 14 13 13 12 11 11 11 10 9 9 8 8 8 7 7 7 8 8 8 8 9 10
44 48 46 46 49 50 49 49 47 47 47 47 47 47 47 48 49 48 46 46 45 43 43 45 42 37 33 28 23 26 25 19 21 19 12 9 7 9 18 19 16 21 26 27 26 26 26 26 26 26 26 26 26 25 26 27 27 27 25 22 20 17 16 15 13 13 13 12 11 11 10 9 9 8 8 7 7 7 7 7 7 7 8 8 9
48 49 47 45 47 48 48 47 46 46 46 45 46 47 47 47 47 47 46 45 45 43 42 42 40 35 34 34 32 33 30 24 29 28 18 12 8 9 19 21 16 19 25 27 26 25 26 26 26 26 26 26 25 25 27 28 29 28 26 24 22 20 18 16 14 13 13 13 12 11 10 9 9 8 7 7 7 6 6 6 7 7 7 8 9
46 46 45 45 45 44 45 45 45 45 44 44 45 47 47 47 46 45 44 45 44 42 40 41 42 38 37 39 37 35 34 31 35 36 29 25 20 14 17 20 13 14 22 25 25 25 26 27 28 27 26 26 26 27 29 30 30 29 27 26 24 22 20 18 17 14 13 13 13 12 11 9 9 8 8 7 6 6 6 6 6 6 6 7 8
40 41 42 43 43 42 42 42 43 44 44 45 45 45 45 44 45 45 45 46 46 44 43 44 46 44 42 41 37 35 34 30 33 36 30 27 24 17 16 17 12 11 17 23 24 24 27 29 28 28 28 27 27 29 30 30 30 29 28 27 26 24 22 20 18 17 15 14 13 12 11 10 9 8 8 7 6 6 5 5 5 6 6 7 8
37 39 40 42 43 43 44 44 44 45 45 45 44 45 47 46 47 48 48 48 48 48 47 46 48 48 44 41 40 40 38 31 31 35 32 28 27 25 19 11 7 10 12 18 21 22 26 31 31 30 29 29 29 30 31 31 30 30 29 28 27 26 23 21 19 18 16 15 14 12 11 11 9 9 8 7 6 6 5 5 5 5 6 7 8
38 40 42 43 43 44 46 46 46 46 46 45 44 46 47 47 48 49 49 49 48 48 48 47 48 49 45 44 45 45 42 37 34 35 38 36 34 36 31 15 5 5 7 11 17 22 26 29 31 33 32 31 31 31 31 32 31 30 30 29 28 27 25 22 20 19 18 16 15 13 12 11 10 9 8 7 6 6 5 5 5 5 6 7 7
32 38 42 44 45 46 47 48 48 49 49 49 48 49 50 49 47 47 47 46 47 48 47 44 45 46 45 43 43 43 43 41 39 37 39 39 38 41 41 30 15 5 4 6 11 20 26 27 31 35 36 34 33 32 32 32 32 31 30 30 29 28 27 25 22 19 18 17 16 15 14 12 11 10 9 8 7 6 5 5 5 5 6 6 6
20 28 35 38 41 45 46 46 47 48 48 49 49 50 51 51 49 48 47 45 44 46 44 41 40 41 42 40 38 39 38 39 39 38 38 39 39 41 42 40 29 13 5 6 10 18 27 31 34 36 39 38 34 34 34 33 33 32 30 30 29 29 28 27 25 22 19 17 17 16 15 13 12 11 10 9 7 6 5 5 5 5 5 5 6
15 18 24 27 29 34 37 37 39 40 41 42 44 45 47 48 47 46 46 43 40 41 40 39 37 37 39 39 36 35 34 36 38 37 38 39 40 42 42 42 37 25 15 9 10 21 29 33 36 37 40 41 36 35 36 34 33 32 31 31 30 29 28 27 26 25 22 21 19 17 15 14 13 11 10 9 8 7 6 5 5 5 5 5 5
18 17 20 22 21 23 27 29 30 33 35 36 37 38 40 41 41 40 39 39 37 37 38 38 36 35 36 37 37 35 34 35 36 35 36 37 39 42 41 40 38 34 30 19 8 17 30 34 37 38 39 42 39 36 36 34 33 33 32 31 30 29 28 27 27 27 27 27 24 20 17 15 14 12 11 10 8 8 7 6 6 6 5 4 3
19 19 20 23 24 24 25 27 29 31 33 34 35 35 36 37 37 36 36 37 37 36 37 39 38 36 36 37 38 38 35 34 36 37 37 37 38 40 40 40 37 34 34 27 10 9 24 33 36 36 37 40 41 38 37 36 34 33 32 31 31 29 28 28 27 27 28 28 25 21 19 17 15 13 12 11 10 8 7 7 7 7 4 2 1
17 19 20 23 26 28 29 29 30 32 33 34 35 36 36 35 36 37 36 37 38 38 38 39 40 39 38 39 40 40 37 35 35 36 37 38 38 39 38 37 36 33 32 29 16 11 16 23 29 33 35 38 40 39 39 38 36 35 33 31 31 30 29 28 28 28 28 27 25 22 21 19 17 15 14 13 11 10 10 10 8 5 2 3 3
14 17 20 22 25 29 31 32 32 34 35 36 36 36 36 36 37 37 37 37 37 38 38 39 40 41 40 40 40 41 40 38 37 37 38 39 38 39 39 37 36 35 33 30 21 15 17 21 27 31 34 37 41 40 40 40 39 38 35 33 31 30 29 29 28 28 28 27 25 23 22 21 20 19 18 16 15 13 12 9 6 5 5 5 4
13 15 17 20 23 26 29 31 33 34 35 36 37 37 37 37 37 37 38 38 38 38 39 38 39 40 39 40 40 40 40 39 39 39 39 40 40 40 41 40 39 37 36 33 26 21 24 26 28 33 35 38 41 41 40 40 39 38 35 33 31 30 30 29 29 30 29 28 26 24 23 22 22 21 20 19 16 14 12 9 7 7 7 6 5
15 15 16 17 20 23 26 28 29 31 32 33 34 36 37 38 38 38 38 39 39 40 41 41 40 41 40 40 40 40 40 40 41 40 39 40 41 41 41 41 41 39 37 36 32 28 28 29 30 34 38 39 39 40 40 38 36 37 35 33 32 31 30 29 29 29 29 28 26 25 24 24 24 23 21 19 17 15 13 10 8 8 8 7 5
18 17 17 16 18 21 23 25 27 29 30 32 32 33 35 36 37 38 38 39 39 39 40 41 42 43 42 42 42 40 39 40 41 41 41 42 42 43 42 42 41 40 37 36 34 31 31 33 33 33 35 36 36 38 41 40 37 35 33 32 32 31 30 29 28 28 29 28 27 26 26 26 25 24 22 20 18 16 13 10 9 9 8 7 5
20 20 19 19 18 19 21 23 25 27 28 30 30 30 31 33 34 35 36 37 38 38 38 38 39 40 41 42 43 42 41 42 42 42 42 44 43 43 43 42 41 39 36 35 33 31 32 34 34 33 33 34 34 37 40 42 41 39 35 32 30 31 31 30 29 28 27 28 27 27 27 27 26 24 22 21 19 16 13 11 10 10 9 7 5
20 20 20 21 21 20 21 21 22 23 25 26 28 28 29 30 31 33 34 34 35 36 38 38 39 40 40 41 42 43 44 45 45 44 44 44 44 45 45 43 40 37 34 33 32 30 31 32 32 33 34 33 33 34 37 38 38 38 38 35 31 30 31 31 31 29 28 27 27 26 26 26 25 23 21 21 19 16 13 12 11 10 10 8 6
19 20 20 20 21 22 22 22 21 22 22 24 26 28 29 30 31 32 33 33 34 35 36 38 39 40 41 41 41 42 44 46 47 47 47 47 46 44 43 40 38 37 35 33 31 29 30 31 28 28 30 30 30 31 31 33 34 35 38 40 38 35 32 31 31 30 29 28 27 26 25 25 24 22 22 21 19 16 14 13 12 11 10 9 8
18 18 18 18 19 21 21 21 22 22 23 24 25 26 28 29 31 32 32 33 34 34 35 35 37 38 39 40 41 41 43 45 47 47 48 49 48 46 43 41 39 37 35 34 32 31 30 28 26 26 26 27 30 32 34 38 39 38 38 38 38 36 34 31 30 30 30 29 28 27 26 26 25 23 23 22 19 17 15 14 13 12 11 10 9
20 19 18 18 19 19 20 20 21 22 23 24 24 25 25 27 28 30 32 33 33 33 34 34 34 36 36 38 40 41 42 43 45 46 47 48 49 49 48 46 45 42 38 36 35 36 35 32 32 33 31 29 34 39 41 42 41 37 38 39 38 36 34 29 26 28 31 30 29 29 27 26 26 24 24 22 20 17 16 15 14 13 11 11 10
22 21 20 20 20 20 19 18 19 21 22 23 24 24 25 26 26 28 29 32 33 33 34 33 33 34 35 36 37 39 40 41 42 43 44 45 47 46 46 47 49 48 46 42 40 39 38 35 35 38 37 35 40 43 41 39 38 38 41 43 41 40 39 34 28 28 33 34 32 31 30 27 26 26 24 22 20 17 16 16 15 13 12 11 11
23 22 22 22 21 20 19 19 19 20 21 23 23 23 24 25 26 27 28 29 31 32 33 33 34 33 33 34 36 37 38 39 40 41 42 43 44 44 43 44 47 49 50 50 47 44 42 38 36 38 40 39 40 42 42 41 40 39 39 41 44 45 45 42 36 33 36 38 35 31 31 30 28 27 25 23 21 18 16 17 16 14 13 13 11
22 23 23 23 22 21 21 21 21 21 21 21 21 21 22 23 24 26 27 28 30 31 32 32 33 34 34 34 34 35 36 37 39 40 40 41 41 41 41 41 42 45 47 48 49 49 49 48 44 43 44 42 43 47 49 48 45 42 40 40 44 47 47 46 41 36 37 41 38 32 30 31 30 28 27 24 21 19 18 18 17 15 15 14 12
22 23 23 23 23 23 23 22 21 22 22 22 21 21 22 22 22 23 25 27 29 30 31 32 32 33 34 35 35 36 36 37 38 39 39 39 38 39 39 39 41 44 45 44 45 46 49 51 50 49 48 46 47 51 52 50 48 48 48 47 48 49 47 42 36 31 33 40 41 33 28 31 32 29 28 26 23 22 20 19 18 16 15 15 14
22 22 22 23 23 22 22 21 20 21 23 22 22 22 23 22 22 22 23 25 28 30 31 31 32 32 33 34 35 36 36 37 38 39 39 39 38 38 39 40 41 43 45 46 46 46 48 50 50 50 50 49 47 47 49 50 49 48 47 46 47 46 42 34 28 25 28 37 42 33 25 29 34 31 28 27 24 23 22 20 19 18 16 16 15
20 20 21 21 22 21 20 20 20 22 22 22 22 23 23 23 22 23 23 24 27 29 30 31 32 32 32 32 33 34 34 35 37 38 38 38 37 37 38 40 40 41 43 45 44 44 45 46 45 44 44 45 43 41 44 47 47 44 36 31 34 37 35 29 24 24 28 35 41 35 24 27 34 32 28 27 25 24 24 22 21 19 18 16 16
19 19 20 20 19 19 19 19 20 22 22 22 22 24 25 24 23 24 24 24 25 28 30 31 32 32 32 32 32 33 33 34 35 36 36 36 36 36 36 37 36 37 40 41 40 38 39 40 40 39 38 39 39 36 38 42 45 44 37 33 35 37 34 27 22 25 30 36 40 37 26 25 32 33 28 27 27 25 24 24 23 21 19 18 16
20 20 19 19 19 19 19 20 21 23 24 24 24 27 27 25 24 24 25 24 25 27 29 30 31 32 32 32 32 32 33 34 34 34 35 35 35 36 36 34 34 34 37 37 36 35 34 33 34 33 31 33 35 33 34 39 42 42 40 40 42 41 35 28 24 23 25 31 40 39 27 23 29 33 29 24 24 26 26 25 24 23 22 20 18
22 21 21 21 23 23 24 25 26 27 28 29 29 30 28 24 22 24 25 26 26 26 27 28 28 29 30 30 31 31 32 32 32 31 33 35 36 37 36 34 33 35 37 38 37 36 34 32 31 29 26 27 30 30 32 38 41 41 40 41 44 46 40 33 29 24 16 25 41 42 30 25 31 35 32 21 14 20 28 28 26 25 24 23 20
Wind_Direction
183 182 181 180 179 178 176 176 178 181 184 181 180 180 181 180 179 177 171 169 169 168 171 163 161 168 164 159 156 151 145 144 141 140 142 142 141 138 133 130 125 124 125 125 123 118 117 117 111 111 111 110 109 107 107 106 103 102 103 102 99 96 94 93 92 92 89 85 84 83 80 77 76 76 75 73 71 71 68 64 63 61 60 56 53
182 181 180 179 179 178 177 176 176 179 181 180 181 181 180 178 178 174 168 171 170 170 170 160 164 167 158 156 153 149 146 144 142 141 142 142 138 132 132 132 126 127 129 128 126 120 117 116 114 114 113 112 112 110 109 108 106 106 105 103 100 98 96 95 94 93 88 86 85 84 82 79 76 75 75 72 70 70 66 64 64 61 58 55 52
183 181 179 179 178 177 177 176 176 178 180 178 179 181 180 177 177 172 169 173 169 168 169 162 165 162 153 155 153 148 147 144 143 142 140 137 134 134 136 132 127 130 130 130 128 121 119 120 118 116 115 116 113 111 111 110 109 109 107 104 102 100 99 98 96 93 89 88 87 84 83 79 76 75 74 73 70 69 66 64 62 58 57 54 52
184 181 179 179 177 177 177 178 177 177 178 177 177 179 179 176 174 171 171 174 169 166 167 166 165 157 151 154 151 148 147 146 144 142 141 137 137 139 138 135 137 136 131 132 128 120 122 124 121 120 120 119 115 114 114 112 111 110 108 105 103 102 101 100 97 94 91 90 89 86 83 78 76 77 74 72 69 68 67 63 59 58 57 53 52
184 181 180 179 177 176 176 178 179 177 177 176 175 176 176 174 172 171 173 170 166 167 166 165 164 156 150 151 150 149 147 147 147 145 144 142 141 141 142 145 145 141 138 139 130 121 126 127 125 125 123 121 118 117 116 114 114 112 110 106 104 105 103 101 98 95 94 93 90 87 83 79 77 77 74 71 70 69 66 62 59 59 56 53 54
183 181 180 178 176 175 175 177 179 178 176 175 173 173 174 174 172 172 175 168 160 165 164 159 160 156 150 149 150 150 150 148 147 148 148 146 145 143 144 145 141 139 142 140 131 126 130 129 129 129 126 124 121 120 119 117 118 115 112 108 107 108 105 102 98 96 98 95 91 87 83 80 80 77 74 72 71 68 64 61 59 58 55 54 54
181 180 178 177 175 174 175 175 177 178 176 174 171 171 172 172 173 172 172 169 161 160 159 157 158 154 150 151 150 150 152 151 148 149 151 151 151 149 145 142 139 142 144 138 131 131 133 133 133 133 130 127 124 123 122 120 121 117 113 111 110 109 107 103 99 99 100 96 90 88 85 82 81 79 75 73 69 65 64 61 59 58 55 54 52
182 180 177 177 175 174 175 174 176 177 176 175 171 169 170 170 173 173 167 164 163 157 153 155 158 154 150 151 150 150 151 152 151 151 152 154 155 154 149 145 143 146 146 141 136 136 136 137 139 137 134 131 128 128 126 124 123 120 115 113 112 111 108 104 101 103 102 96 91 89 87 84 82 79 76 73 69 67 64 62 60 57 54 54 52
184 181 178 177 175 174 174 174 175 177 176 175 172 169 169 167 169 174 169 162 162 155 146 148 153 154 150 148 148 151 151 152 153 153 153 155 156 156 154 152 149 148 149 146 142 141 141 142 145 144 139 134 133 132 130 128 126 123 119 115 114 113 111 107 105 108 105 97 94 92 87 85 83 80 77 73 70 67 64 62 60 56 55 55 52
184 182 179 177 176 174 173 173 174 175 175 174 172 168 167 167 165 169 172 166 160 153 145 143 147 150 149 146 147 149 150 151 153 154 155 155 155 156 155 155 154 152 152 151 148 148 147 147 149 147 142 139 139 138 134 132 130 126 123 119 116 116 115 110 109 110 105 98 96 93 87 85 84 80 78 75 71 67 65 64 60 56 55 54 50
183 182 180 178 176 173 172 173 173 174 174 172 171 168 165 165 162 160 165 166 161 154 146 141 140 144 147 145 145 147 148 149 151 153 155 156 157 158 157 157 157 155 155 155 154 154 152 152 151 147 144 144 145 142 138 135 133 130 127 123 119 121 119 113 114 113 105 101 101 94 87 86 85 80 78 78 73 68 67 64 59 56 53 52 51
186 181 179 176 174 173 171 172 173 172 172 171 171 171 168 165 161 157 156 155 158 156 150 143 134 129 135 138 141 144 146 148 150 151 153 155 158 160 160 160 160 159 159 160 159 159 157 156 156 152 148 150 149 146 143 140 138 136 132 126 121 123 121 115 116 114 108 106 105 97 89 88 86 82 81 80 76 70 68 64 60 57 55 54 51
199 180 176 175 172 172 171 170 172 171 172 174 174 173 170 166 162 160 160 154 152 154 152 146 135 121 119 122 125 133 140 146 148 150 152 154 158 160 161 163 162 161 162 163 163 163 162 160 159 158 155 155 154 150 148 144 144 143 137 131 126 125 123 120 119 116 113 112 107 100 93 92 90 85 83 81 76 71 69 66 62 59 56 53 50
224 182 173 173 171 171 171 170 172 171 172 175 173 170 168 166 162 160 163 161 157 157 154 150 143 136 129 113 104 115 127 138 142 147 152 154 158 161 162 164 163 163 164 165 166 166 166 165 163 161 159 160 158 155 153 150 150 148 142 137 132 131 127 122 123 120 117 115 108 102 97 96 93 87 85 82 76 73 71 67 63 59 55 52 51
245 188 173 171 172 171 171 171 172 171 170 171 170 169 167 167 166 162 160 160 160 162 162 159 150 143 136 127 125 117 109 130 140 145 152 153 157 161 162 165 164 165 166 166 168 168 168 169 168 166 164 164 162 159 157 155 154 150 146 143 138 136 134 127 126 125 121 119 112 105 101 99 95 88 85 82 76 75 73 68 63 60 56 54 53
249 193 174 172 173 171 171 171 172 172 170 169 169 170 170 169 168 166 161 158 160 166 170 169 158 150 138 116 136 142 141 160 141 132 146 151 156 161 162 165 166 166 168 169 169 169 170 171 171 171 170 170 169 166 163 159 156 154 151 148 145 141 138 132 130 129 125 123 117 109 105 101 98 93 87 83 79 76 72 68 65 62 58 54 53
247 199 177 172 174 172 171 172 172 172 170 170 170 171 173 172 170 170 169 166 165 169 176 179 169 163 155 142 137 161 178 154 144 133 153 158 158 162 164 166 167 168 170 172 171 170 171 173 174 173 173 174 174 174 172 166 161 160 156 152 150 147 144 139 136 135 132 129 123 114 108 104 101 96 92 89 83 77 73 70 66 63 59 54 52
234 203 180 173 174 173 172 172 172 172 172 172 172 172 173 174 174 175 176 174 169 169 177 182 180 175 168 166 170 185 162 151 147 134 162 171 169 167 169 170 171 172 172 173 174 173 173 175 177 176 176 177 177 177 178 174 168 164 160 157 156 151 149 145 140 141 138 134 129 120 112 108 104 98 97 94 86 80 76 71 67 63 59 55 52
216 203 184 174 174 174 173 173 173 173 173 172 173 175 176 177 178 178 178 177 171 171 177 179 183 187 185 180 183 186 170 162 156 144 152 197 198 187 182 178 176 174 174 176 177 177 178 179 181 181 180 180 180 181 182 180 175 169 162 160 161 157 153 148 144 145 142 138 134 124 117 111 106 103 102 97 88 82 77 72 67 63 59 54 52
207 200 187 176 173 173 173 173 174 174 174 174 175 178 180 180 181 181 179 180 179 178 179 179 183 189 191 188 187 183 174 169 167 164 162 180 192 197 196 190 187 180 177 179 181 182 183 183 183 184 185 184 184 185 186 185 180 175 167 163 164 161 157 152 147 146 144 142 139 129 122 117 111 108 106 100 92 84 78 74 67 62 58 54 53
199 196 188 178 173 172 172 174 175 175 176 177 178 179 181 181 182 182 182 184 185 183 182 183 186 188 187 185 174 166 170 174 176 172 167 167 167 186 189 188 196 191 184 184 186 187 187 186 186 187 188 188 187 188 189 187 182 178 171 167 169 166 161 157 153 150 147 146 143 134 127 124 118 112 109 103 96 88 80 76 69 64 60 56 52
188 188 185 178 173 172 173 175 176 177 178 178 179 179 181 183 183 185 186 186 187 187 186 187 188 188 187 182 167 161 164 172 182 180 166 162 165 178 181 182 192 194 191 191 192 191 190 188 188 190 190 190 191 192 191 188 184 181 175 171 174 172 167 163 159 154 151 150 148 140 133 130 126 120 115 108 101 95 85 79 74 68 64 59 53
179 179 179 174 172 172 174 175 177 179 180 180 181 181 182 185 186 187 188 188 188 188 189 188 187 189 192 191 182 177 176 179 186 184 171 163 160 168 181 185 188 191 195 197 197 196 194 193 193 194 194 194 195 195 193 189 185 184 181 177 176 174 172 171 168 163 156 152 150 144 140 138 134 128 122 116 110 101 91 84 77 71 68 61 53
167 168 170 169 170 172 174 175 178 180 180 181 184 184 185 186 187 188 189 190 190 189 190 190 189 191 197 199 196 192 190 189 188 186 183 179 171 162 174 180 183 193 198 200 201 201 200 199 199 199 199 199 199 197 194 192 190 188 188 185 180 175 172 171 171 170 162 156 153 148 146 145 142 137 130 123 118 108 98 89 79 75 71 63 55
154 156 161 166 169 173 175 176 179 182 183 184 186 186 187 188 188 190 191 192 192 192 192 193 193 196 200 201 200 199 199 197 192 189 188 180 168 155 161 172 175 180 193 200 202 204 205 203 202 202 201 201 200 198 196 194 193 192 192 191 188 182 175 169 170 172 168 163 158 152 151 153 149 144 138 130 124 116 106 96 86 81 73 64 56
149 154 161 168 173 177 179 181 183 185 185 186 187 188 190 191 192 193 194 195 195 195 196 197 197 199 201 201 202 204 204 203 198 192 188 182 171 158 148 150 157 159 181 199 201 204 207 206 204 202 202 203 200 198 197 196 195 195 195 193 192 189 181 172 171 173 172 170 165 158 158 160 157 152 145 138 135 127 116 106 95 87 77 65 56
157 161 167 173 177 180 183 185 186 187 188 188 189 190 192 194 195 196 197 197 197 197 199 199 200 201 202 203 205 206 206 205 204 199 195 193 186 174 163 149 131 155 179 199 207 214 212 207 205 204 204 204 203 201 199 199 198 197 197 196 194 193 186 176 173 173 173 172 168 167 169 167 164 160 151 146 145 138 127 118 106 92 81 67 57
163 168 173 177 180 183 186 188 189 190 191 191 192 192 194 196 197 199 200 199 198 200 201 202 203 202 203 205 206 207 207 207 207 205 202 199 195 190 181 172 165 159 182 200 218 224 218 208 205 206 206 205 204 203 202 202 201 200 200 199 197 195 191 183 176 173 172 171 168 169 173 171 169 166 159 155 153 147 139 129 116 100 86 71 61
167 172 176 179 182 185 188 190 191 193 193 193 194 195 196 197 198 200 201 201 201 203 204 205 206 206 206 207 208 209 209 209 209 208 206 202 200 199 195 190 184 168 161 199 214 217 215 210 207 206 206 206 204 203 203 203 202 201 200 199 198 196 193 190 184 178 174 175 173 172 173 172 172 170 163 161 158 154 150 137 123 110 94 79 68
183 183 183 184 185 188 189 190 191 193 193 194 196 196 197 198 199 201 202 202 202 205 207 207 208 209 209 210 211 212 212 212 212 210 207 206 205 204 203 203 198 189 178 182 211 210 206 206 208 207 205 203 203 202 202 202 200 200 200 199 198 196 195 195 193 187 180 178 176 175 176 177 176 174 170 167 165 163 159 147 136 120 104 91 80
195 196 197 197 196 195 193 192 193 194 195 197 197 198 198 199 200 201 202 202 203 206 208 209 210 211 211 212 213 214 215 215 215 213 210 209 210 209 208 207 206 204 195 186 202 210 202 202 206 208 206 202 200 200 200 200 199 199 200 198 197 198 197 196 196 194 188 183 179 173 174 180 181 179 175 172 171 170 164 156 145 130 119 110 106
198 201 204 206 207 204 200 199 198 197 198 199 199 201 201 202 203 203 204 204 205 207 208 210 212 212 213 214 215 215 216 217 216 215 214 212 213 213 212 210 209 210 205 199 192 187 198 204 203 202 205 202 199 199 199 198 198 199 200 200 197 197 198 196 197 197 194 192 189 180 174 175 177 178 178 177 179 176 168 160 149 141 139 144 177
200 202 205 206 207 207 204 202 201 200 201 201 202 204 204 205 206 206 207 207 207 209 210 211 212 213 214 214 216 216 216 217 217 216 215 215 215 215 214 214 212 212 211 206 191 154 180 202 201 197 201 200 198 199 198 195 196 197 198 199 199 198 198 198 197 197 197 197 197 192 185 180 177 178 176 173 174 171 169 169 165 170 225 260 239
212 207 206 205 205 205 204 203 203 202 204 205 206 207 207 208 208 209 210 210 210 210 211 212 213 213 215 215 216 216 215 216 217 217 217 215 215 215 215 215 215 215 214 207 191 163 165 185 193 193 195 197 196 197 198 196 194 195 197 197 198 199 200 201 199 197 198 199 200 200 199 197 194 193 188 184 183 183 187 195 208 236 253 252 240
227 220 215 211 208 207 206 205 205 205 206 207 208 208 208 209 210 211 212 212 212 212 212 214 214 214 215 216 217 216 214 215 216 217 218 217 216 216 216 216 216 215 214 209 200 182 167 173 186 189 189 193 196 195 196 197 194 195 196 196 197 198 200 202 201 200 199 201 203 204 206 206 207 208 206 206 208 209 212 223 239 242 241 239 239
228 225 223 219 215 214 212 210 209 209 210 210 210 211 211 212 213 213 215 215 215 216 215 216 215 215 215 216 218 217 214 214 215 216 216 216 216 217 217 217 216 215 213 211 209 199 179 173 183 190 188 188 193 194 193 193 194 196 196 195 195 197 198 199 201 202 202 203 205 206 207 209 210 214 217 221 226 226 225 229 232 232 234 232 234
224 223 222 220 218 218 217 217 216 214 215 214 214 214 214 215 216 216 217 217 217 219 219 219 218 217 216 216 218 218 214 214 215 214 214 215 216 217 218 217 215 215 213 210 209 207 195 182 179 186 187 185 187 192 191 189 188 190 193 194 194 195 195 197 199 203 204 205 206 207 208 211 213 216 221 225 228 226 224 224 224 225 226 224 228
220 220 221 220 220 220 220 221 221 220 220 218 218 218 218 217 218 219 219 219 219 220 221 222 222 221 219 218 218 218 216 215 216 215 214 215 216 216 216 216 215 213 211 207 205 203 197 184 174 175 181 184 184 187 191 191 187 184 184 187 191 195 195 195 196 200 204 205 205 206 207 210 212 215 218 223 225 222 218 216 217 221 222 218 222
215 216 217 219 220 223 224 225 226 226 226 225 225 225 224 223 223 223 223 223 223 223 224 225 225 225 225 223 221 220 218 218 218 217 216 216 216 217 216 215 212 208 204 202 200 193 184 175 170 172 177 182 183 182 187 191 189 186 183 179 181 190 194 196 196 196 199 201 201 203 206 208 210 211 214 218 219 214 211 213 215 218 218 216 220
216 216 216 217 218 220 224 227 229 231 231 232 232 231 231 231 230 229 229 228 228 227 228 227 227 227 227 227 225 223 222 221 220 219 219 217 215 215 215 212 208 203 198 194 191 184 175 168 167 170 171 174 179 179 181 183 184 187 188 184 181 183 188 193 196 196 196 197 198 199 202 204 205 206 209 212 213 209 207 210 213 215 215 216 221
225 225 224 223 220 219 220 223 226 230 233 235 236 236 236 235 235 235 234 234 233 232 231 231 231 230 229 229 228 227 226 225 224 223 222 221 218 215 213 208 204 199 193 189 184 175 168 163 162 165 167 172 177 176 180 186 188 188 188 186 184 182 184 187 192 196 197 197 197 197 199 201 202 203 206 208 209 206 206 209 212 213 214 217 222
230 231 229 227 225 224 223 223 224 228 231 235 238 240 241 241 241 240 240 239 239 238 237 236 235 234 233 232 232 231 230 229 228 225 224 224 222 219 215 209 204 198 190 185 182 177 172 168 167 169 172 179 184 183 186 190 192 188 183 183 182 180 180 182 188 195 198 198 197 196 198 201 202 203 205 207 208 205 204 209 211 211 213 219 222
228 229 227 225 225 226 227 226 227 229 232 234 236 239 243 246 246 246 245 243 242 242 242 241 240 239 237 236 235 234 233 231 229 227 225 225 224 222 218 214 210 204 197 189 183 180 177 175 175 176 178 184 188 189 189 188 188 187 184 183 182 179 178 180 184 192 197 199 197 195 196 199 202 204 206 207 208 205 203 208 211 211 214 220 221
226 226 226 226 226 227 227 228 229 231 234 234 234 236 240 244 247 249 249 248 246 245 244 244 243 243 241 239 237 236 234 232 230 228 225 224 225 222 219 217 213 210 207 201 195 189 184 181 180 184 187 187 186 187 189 187 187 187 185 185 185 184 184 184 186 189 194 196 195 194 195 198 200 204 208 209 209 206 204 210 213 212 216 221 222
224 224 225 227 227 227 227 228 230 233 236 237 236 237 240 242 245 248 251 252 250 248 247 246 245 243 241 240 238 236 235 233 231 229 225 223 223 221 219 218 215 211 210 208 206 203 198 192 189 191 192 189 187 190 191 188 184 182 183 187 189 189 189 190 191 191 192 193 193 191 193 199 201 203 207 209 209 208 207 210 213 213 217 222 223
222 222 222 224 225 226 227 227 231 236 238 238 235 235 238 241 243 246 250 252 252 251 249 248 246 243 241 238 236 235 234 232 230 228 225 222 219 217 215 215 215 213 211 210 209 207 204 201 200 201 200 197 198 196 192 189 187 186 187 191 193 192 192 192 193 194 194 194 193 189 189 198 202 203 205 207 209 209 209 211 213 213 218 221 223
220 220 220 221 222 224 226 228 233 240 243 243 240 237 237 239 242 243 246 250 252 251 251 249 247 245 243 240 237 235 233 232 230 227 223 221 217 213 211 212 213 213 212 213 212 209 208 207 207 208 207 205 204 200 195 194 194 193 195 196 194 191 189 188 188 194 198 196 194 191 189 196 200 202 204 206 209 210 210 211 212 213 217 220 223
219 219 220 221 223 224 227 232 238 246 250 251 249 247 244 243 243 243 243 247 249 249 250 250 249 248 245 241 239 236 234 232 232 229 224 219 214 210 209 210 211 212 212 214 214 214 212 210 209 211 211 207 205 204 200 196 193 193 193 189 185 183 180 179 182 189 194 195 195 195 192 192 197 201 202 204 209 212 212 212 211 210 214 218 224
229 228 227 228 231 233 237 241 247 253 257 257 255 254 252 249 247 244 243 245 248 248 248 249 250 249 246 244 241 238 236 234 233 231 224 217 212 209 207 207 208 210 211 212 214 215 215 212 210 211 211 209 208 207 203 195 191 190 185 176 177 180 177 175 179 186 191 192 194 196 196 191 194 198 198 201 207 212 213 215 214 210 210 213 222
236 236 237 237 239 242 244 247 249 253 256 256 255 254 251 249 248 248 246 245 246 247 246 247 248 247 246 245 242 239 238 237 235 231 224 217 211 209 207 204 203 206 207 207 207 210 212 211 209 208 209 208 207 205 201 196 194 194 191 187 184 180 178 181 182 179 187 195 194 193 194 193 192 194 193 194 205 214 214 215 216 215 212 212 217
229 230 231 232 234 236 238 240 242 244 247 250 251 250 246 243 245 248 248 244 242 242 242 242 244 244 244 243 241 239 238 237 235 230 223 217 213 211 207 202 201 206 206 202 201 202 203 202 202 200 199 199 200 200 198 198 199 200 201 198 191 184 183 186 180 167 176 203 198 191 189 190 189 191 189 183 193 216 218 215 215 216 216 217 216